owner,sensor,date,latitude,longitude,vertical_datum,wind_speed,wind_to_direction,wind_speed_of_gust,qcFlag 
TCOON,ioos:station:TCOON:003:1,2017-05-01T00:00:00Z,26.8015,-97.4706,0.0,7.3,74.0,8.7,'11111222,11111222,11111222' 
TCOON,ioos:station:TCOON:003:1,2017-05-01T00:06:00Z,26.8015,-97.4706,0.0,6.9,78.0,8.2,'11111222,11111222,11111222' 
TCOON,ioos:station:TCOON:003:1,2017-05-01T00:12:00Z,26.8015,-97.4706,0.0,7.1,79.0,8.2,'11111222,11111222,11111222' 
TCOON,ioos:station:TCOON:003:1,2017-05-01T00:18:00Z,26.8015,-97.4706,0.0,7.1,79.0,8.2,'1111122,1111122,1111122' 
TCOON,ioos:station:TCOON:003:1,2017-05-01T00:24:00Z,26.8015,-97.4706,0.0,6.7,83.0,7.7,'11111222,11111222,11111222' 
TCOON,ioos:station:TCOON:003:1,2017-05-01T00:30:00Z,26.8015,-97.4706,0.0,6.0,81.0,7.9,'11111222,11111222,11111222' 
TCOON,ioos:station:TCOON:003:1,2017-05-01T00:36:00Z,26.8015,-97.4706,0.0,5.9,77.0,7.8,'11111222,11111222,11111222' 
TCOON,ioos:station:TCOON:003:1,2017-05-01T00:42:00Z,26.8015,-97.4706,0.0,5.8,85.0,7.4,'11111222,11111222,11111222' 
TCOON,ioos:station:TCOON:003:1,2017-05-01T00:48:00Z,26.8015,-97.4706,0.0,6.4,82.0,7.4,'11111222,11111222,11111222' 
TCOON,ioos:station:TCOON:003:1,2017-05-01T00:54:00Z,26.8015,-97.4706,0.0,5.5,85.0,7.3,'11111222,11111222,11111222' 
TCOON,ioos:station:TCOON:003:1,2017-05-01T01:00:00Z,26.8015,-97.4706,0.0,5.8,83.0,7.0,'11111222,11111222,11111222' 
TCOON,ioos:station:TCOON:003:1,2017-05-01T01:06:00Z,26.8015,-97.4706,0.0,4.8,89.0,6.3,'11111222,11111222,11111222' 
TCOON,ioos:station:TCOON:003:1,2017-05-01T01:12:00Z,26.8015,-97.4706,0.0,4.9,88.0,6.4,'11111222,11111222,11111222' 
TCOON,ioos:station:TCOON:003:1,2017-05-01T01:18:00Z,26.8015,-97.4706,0.0,4.9,88.0,6.4,'1111122,1111122,1111122' 
TCOON,ioos:station:TCOON:003:1,2017-05-01T01:24:00Z,26.8015,-97.4706,0.0,5.2,102.0,6.2,'11111222,11111222,11111222' 
TCOON,ioos:station:TCOON:003:1,2017-05-01T01:30:00Z,26.8015,-97.4706,0.0,4.9,107.0,5.7,'11111222,11111222,11111222' 
TCOON,ioos:station:TCOON:003:1,2017-05-01T01:36:00Z,26.8015,-97.4706,0.0,4.7,102.0,5.6,'11111222,11111222,11111222' 
TCOON,ioos:station:TCOON:003:1,2017-05-01T01:42:00Z,26.8015,-97.4706,0.0,4.1,100.0,5.4,'11111222,11111222,11111222' 
TCOON,ioos:station:TCOON:003:1,2017-05-01T01:48:00Z,26.8015,-97.4706,0.0,4.1,98.0,5.9,'11111222,11111222,11111222' 
TCOON,ioos:station:TCOON:003:1,2017-05-01T01:54:00Z,26.8015,-97.4706,0.0,4.7,102.0,5.3,'11111222,11111222,11111222' 
TCOON,ioos:station:TCOON:003:1,2017-05-01T02:00:00Z,26.8015,-97.4706,0.0,4.5,113.0,5.0,'11111222,11111222,11111222' 
TCOON,ioos:station:TCOON:003:1,2017-05-01T02:06:00Z,26.8015,-97.4706,0.0,4.6,108.0,5.3,'11111222,11111222,11111222' 
TCOON,ioos:station:TCOON:003:1,2017-05-01T02:12:00Z,26.8015,-97.4706,0.0,4.8,107.0,5.9,'11111222,11111222,11111222' 
TCOON,ioos:station:TCOON:003:1,2017-05-01T02:18:00Z,26.8015,-97.4706,0.0,4.8,107.0,5.9,'1111122,1111122,1111122' 
TCOON,ioos:station:TCOON:003:1,2017-05-01T02:24:00Z,26.8015,-97.4706,0.0,5.1,110.0,6.1,'11111222,11111222,11111222' 
TCOON,ioos:station:TCOON:003:1,2017-05-01T02:30:00Z,26.8015,-97.4706,0.0,5.0,117.0,5.9,'11111222,11111222,11111222' 
TCOON,ioos:station:TCOON:003:1,2017-05-01T02:36:00Z,26.8015,-97.4706,0.0,5.0,118.0,5.7,'11111222,11111222,11111222' 
TCOON,ioos:station:TCOON:003:1,2017-05-01T02:42:00Z,26.8015,-97.4706,0.0,5.4,123.0,6.0,'11111222,11111222,11111222' 
TCOON,ioos:station:TCOON:003:1,2017-05-01T02:48:00Z,26.8015,-97.4706,0.0,4.6,122.0,5.6,'11111222,11111222,11111222' 
TCOON,ioos:station:TCOON:003:1,2017-05-01T02:54:00Z,26.8015,-97.4706,0.0,4.4,126.0,5.7,'11111222,11111222,11111222' 
TCOON,ioos:station:TCOON:003:1,2017-05-01T03:00:00Z,26.8015,-97.4706,0.0,5.0,125.0,5.9,'11111222,11111222,11111222' 
TCOON,ioos:station:TCOON:003:1,2017-05-01T03:06:00Z,26.8015,-97.4706,0.0,5.2,116.0,6.0,'11111222,11111222,11111222' 
TCOON,ioos:station:TCOON:003:1,2017-05-01T03:12:00Z,26.8015,-97.4706,0.0,4.9,122.0,5.8,'11111222,11111222,11111222' 
TCOON,ioos:station:TCOON:003:1,2017-05-01T03:18:00Z,26.8015,-97.4706,0.0,4.9,122.0,5.8,'1111122,1111122,1111122' 
TCOON,ioos:station:TCOON:003:1,2017-05-01T03:24:00Z,26.8015,-97.4706,0.0,5.1,130.0,5.8,'11111222,11111222,11111222' 
TCOON,ioos:station:TCOON:003:1,2017-05-01T03:30:00Z,26.8015,-97.4706,0.0,5.0,125.0,5.8,'11111222,11111222,11111222' 
TCOON,ioos:station:TCOON:003:1,2017-05-01T03:36:00Z,26.8015,-97.4706,0.0,4.6,122.0,5.8,'11111222,11111222,11111222' 
TCOON,ioos:station:TCOON:003:1,2017-05-01T03:42:00Z,26.8015,-97.4706,0.0,4.8,126.0,5.6,'11111222,11111222,11111222' 
TCOON,ioos:station:TCOON:003:1,2017-05-01T03:48:00Z,26.8015,-97.4706,0.0,4.4,126.0,5.5,'11111222,11111222,11111222' 
TCOON,ioos:station:TCOON:003:1,2017-05-01T03:54:00Z,26.8015,-97.4706,0.0,4.8,126.0,5.5,'11111222,11111222,11111222' 
TCOON,ioos:station:TCOON:003:1,2017-05-01T04:00:00Z,26.8015,-97.4706,0.0,4.6,126.0,5.4,'11111222,11111222,11111222' 
TCOON,ioos:station:TCOON:003:1,2017-05-01T04:06:00Z,26.8015,-97.4706,0.0,4.1,122.0,5.3,'11111222,11111222,11111222' 
TCOON,ioos:station:TCOON:003:1,2017-05-01T04:12:00Z,26.8015,-97.4706,0.0,4.7,127.0,5.4,'11111222,11111222,11111222' 
TCOON,ioos:station:TCOON:003:1,2017-05-01T04:18:00Z,26.8015,-97.4706,0.0,4.2,121.0,5.2,'11111222,11111222,11111222' 
TCOON,ioos:station:TCOON:003:1,2017-05-01T04:24:00Z,26.8015,-97.4706,0.0,4.2,121.0,5.2,'1111122,1111122,1111122' 
TCOON,ioos:station:TCOON:003:1,2017-05-01T04:30:00Z,26.8015,-97.4706,0.0,4.5,125.0,5.8,'11111222,11111222,11111222' 
TCOON,ioos:station:TCOON:003:1,2017-05-01T04:36:00Z,26.8015,-97.4706,0.0,4.6,125.0,5.5,'11111222,11111222,11111222' 
TCOON,ioos:station:TCOON:003:1,2017-05-01T04:42:00Z,26.8015,-97.4706,0.0,4.8,126.0,5.8,'11111222,11111222,11111222' 
TCOON,ioos:station:TCOON:003:1,2017-05-01T04:48:00Z,26.8015,-97.4706,0.0,4.5,123.0,5.2,'11111222,11111222,11111222' 
TCOON,ioos:station:TCOON:003:1,2017-05-01T04:54:00Z,26.8015,-97.4706,0.0,4.8,119.0,5.5,'11111222,11111222,11111222' 
TCOON,ioos:station:TCOON:003:1,2017-05-01T05:00:00Z,26.8015,-97.4706,0.0,4.2,123.0,5.1,'11111222,11111222,11111222' 
TCOON,ioos:station:TCOON:003:1,2017-05-01T05:06:00Z,26.8015,-97.4706,0.0,4.6,125.0,5.5,'11111222,11111222,11111222' 
TCOON,ioos:station:TCOON:003:1,2017-05-01T05:12:00Z,26.8015,-97.4706,0.0,4.5,129.0,5.2,'11111222,11111222,11111222' 
TCOON,ioos:station:TCOON:003:1,2017-05-01T05:18:00Z,26.8015,-97.4706,0.0,4.5,129.0,5.2,'1111122,1111122,1111122' 
TCOON,ioos:station:TCOON:003:1,2017-05-01T05:24:00Z,26.8015,-97.4706,0.0,5.0,142.0,5.7,'11111222,11111222,11111222' 
TCOON,ioos:station:TCOON:003:1,2017-05-01T05:30:00Z,26.8015,-97.4706,0.0,5.3,141.0,5.9,'11111222,11111222,11111222' 
TCOON,ioos:station:TCOON:003:1,2017-05-01T05:36:00Z,26.8015,-97.4706,0.0,4.9,135.0,5.8,'11111222,11111222,11111222' 
TCOON,ioos:station:TCOON:003:1,2017-05-01T05:42:00Z,26.8015,-97.4706,0.0,4.8,139.0,5.6,'11111222,11111222,11111222' 
TCOON,ioos:station:TCOON:003:1,2017-05-01T05:48:00Z,26.8015,-97.4706,0.0,4.8,146.0,5.4,'11111222,11111222,11111222' 
TCOON,ioos:station:TCOON:003:1,2017-05-01T05:54:00Z,26.8015,-97.4706,0.0,5.3,144.0,6.0,'11111222,11111222,11111222' 
TCOON,ioos:station:TCOON:003:1,2017-05-01T06:00:00Z,26.8015,-97.4706,0.0,5.2,143.0,6.3,'11111222,11111222,11111222' 
TCOON,ioos:station:TCOON:003:1,2017-05-01T06:06:00Z,26.8015,-97.4706,0.0,5.4,141.0,5.9,'11111222,11111222,11111222' 
TCOON,ioos:station:TCOON:003:1,2017-05-01T06:12:00Z,26.8015,-97.4706,0.0,5.8,147.0,6.7,'11111222,11111222,11111222' 
TCOON,ioos:station:TCOON:003:1,2017-05-01T06:18:00Z,26.8015,-97.4706,0.0,5.8,147.0,6.7,'1111122,1111122,1111122' 
TCOON,ioos:station:TCOON:003:1,2017-05-01T06:24:00Z,26.8015,-97.4706,0.0,5.2,142.0,5.8,'11111222,11111222,11111222' 
TCOON,ioos:station:TCOON:003:1,2017-05-01T06:30:00Z,26.8015,-97.4706,0.0,4.6,141.0,5.4,'11111222,11111222,11111222' 
TCOON,ioos:station:TCOON:003:1,2017-05-01T06:36:00Z,26.8015,-97.4706,0.0,4.9,142.0,6.3,'11111222,11111222,11111222' 
TCOON,ioos:station:TCOON:003:1,2017-05-01T06:42:00Z,26.8015,-97.4706,0.0,4.9,139.0,5.9,'11111222,11111222,11111222' 
TCOON,ioos:station:TCOON:003:1,2017-05-01T06:48:00Z,26.8015,-97.4706,0.0,4.8,142.0,6.0,'11111222,11111222,11111222' 
TCOON,ioos:station:TCOON:003:1,2017-05-01T06:54:00Z,26.8015,-97.4706,0.0,5.3,144.0,6.2,'11111222,11111222,11111222' 
TCOON,ioos:station:TCOON:003:1,2017-05-01T07:00:00Z,26.8015,-97.4706,0.0,5.4,145.0,5.9,'11111222,11111222,11111222' 
TCOON,ioos:station:TCOON:003:1,2017-05-01T07:06:00Z,26.8015,-97.4706,0.0,4.9,142.0,5.8,'11111222,11111222,11111222' 
TCOON,ioos:station:TCOON:003:1,2017-05-01T07:12:00Z,26.8015,-97.4706,0.0,4.7,141.0,5.7,'11111222,11111222,11111222' 
TCOON,ioos:station:TCOON:003:1,2017-05-01T07:18:00Z,26.8015,-97.4706,0.0,4.7,141.0,5.7,'1111122,1111122,1111122' 
TCOON,ioos:station:TCOON:003:1,2017-05-01T07:24:00Z,26.8015,-97.4706,0.0,4.4,134.0,5.1,'11111222,11111222,11111222' 
TCOON,ioos:station:TCOON:003:1,2017-05-01T07:30:00Z,26.8015,-97.4706,0.0,3.9,136.0,4.6,'11111222,11111222,11111222' 
TCOON,ioos:station:TCOON:003:1,2017-05-01T07:36:00Z,26.8015,-97.4706,0.0,4.7,137.0,5.0,'11111222,11111222,11111222' 
TCOON,ioos:station:TCOON:003:1,2017-05-01T07:42:00Z,26.8015,-97.4706,0.0,4.5,139.0,5.1,'11111222,11111222,11111222' 
TCOON,ioos:station:TCOON:003:1,2017-05-01T07:48:00Z,26.8015,-97.4706,0.0,4.6,142.0,5.2,'11111222,11111222,11111222' 
TCOON,ioos:station:TCOON:003:1,2017-05-01T07:54:00Z,26.8015,-97.4706,0.0,4.8,142.0,5.2,'11111222,11111222,11111222' 
TCOON,ioos:station:TCOON:003:1,2017-05-01T08:00:00Z,26.8015,-97.4706,0.0,4.6,144.0,5.4,'11111222,11111222,11111222' 
TCOON,ioos:station:TCOON:003:1,2017-05-01T08:06:00Z,26.8015,-97.4706,0.0,4.5,140.0,5.2,'11111222,11111222,11111222' 
TCOON,ioos:station:TCOON:003:1,2017-05-01T08:12:00Z,26.8015,-97.4706,0.0,4.1,136.0,4.9,'11111222,11111222,11111222' 
TCOON,ioos:station:TCOON:003:1,2017-05-01T08:18:00Z,26.8015,-97.4706,0.0,3.9,134.0,4.7,'11111222,11111222,11111222' 
TCOON,ioos:station:TCOON:003:1,2017-05-01T08:24:00Z,26.8015,-97.4706,0.0,3.9,134.0,4.7,'1111122,1111122,1111122' 
TCOON,ioos:station:TCOON:003:1,2017-05-01T08:30:00Z,26.8015,-97.4706,0.0,3.7,139.0,4.4,'11111222,11111222,11111222' 
TCOON,ioos:station:TCOON:003:1,2017-05-01T08:36:00Z,26.8015,-97.4706,0.0,3.8,134.0,4.4,'11111222,11111222,11111222' 
TCOON,ioos:station:TCOON:003:1,2017-05-01T08:42:00Z,26.8015,-97.4706,0.0,3.4,136.0,4.2,'11111222,11111222,11111222' 
TCOON,ioos:station:TCOON:003:1,2017-05-01T08:48:00Z,26.8015,-97.4706,0.0,3.6,138.0,4.0,'11111222,11111222,11111222' 
TCOON,ioos:station:TCOON:003:1,2017-05-01T08:54:00Z,26.8015,-97.4706,0.0,3.6,137.0,4.3,'11111222,11111222,11111222' 
TCOON,ioos:station:TCOON:003:1,2017-05-01T09:00:00Z,26.8015,-97.4706,0.0,3.9,139.0,4.3,'11111222,11111222,11111222' 
TCOON,ioos:station:TCOON:003:1,2017-05-01T09:06:00Z,26.8015,-97.4706,0.0,3.5,137.0,4.3,'11111222,11111222,11111222' 
TCOON,ioos:station:TCOON:003:1,2017-05-01T09:12:00Z,26.8015,-97.4706,0.0,4.2,137.0,4.5,'11111222,11111222,11111222' 
TCOON,ioos:station:TCOON:003:1,2017-05-01T09:18:00Z,26.8015,-97.4706,0.0,3.8,137.0,4.5,'11111222,11111222,11111222' 
TCOON,ioos:station:TCOON:003:1,2017-05-01T09:24:00Z,26.8015,-97.4706,0.0,3.8,137.0,4.5,'1111122,1111122,1111122' 
TCOON,ioos:station:TCOON:003:1,2017-05-01T09:30:00Z,26.8015,-97.4706,0.0,3.8,135.0,4.3,'11111222,11111222,11111222' 
TCOON,ioos:station:TCOON:003:1,2017-05-01T09:36:00Z,26.8015,-97.4706,0.0,4.0,133.0,4.4,'11111222,11111222,11111222' 
TCOON,ioos:station:TCOON:003:1,2017-05-01T09:42:00Z,26.8015,-97.4706,0.0,3.8,134.0,4.7,'11111222,11111222,11111222' 
TCOON,ioos:station:TCOON:003:1,2017-05-01T09:48:00Z,26.8015,-97.4706,0.0,4.1,130.0,5.5,'11111222,11111222,11111222' 
TCOON,ioos:station:TCOON:003:1,2017-05-01T09:54:00Z,26.8015,-97.4706,0.0,3.9,129.0,4.7,'11111222,11111222,11111222' 
TCOON,ioos:station:TCOON:003:1,2017-05-01T10:00:00Z,26.8015,-97.4706,0.0,4.1,132.0,4.9,'11111222,11111222,11111222' 
TCOON,ioos:station:TCOON:003:1,2017-05-01T10:06:00Z,26.8015,-97.4706,0.0,4.4,128.0,5.0,'11111222,11111222,11111222' 
TCOON,ioos:station:TCOON:003:1,2017-05-01T10:12:00Z,26.8015,-97.4706,0.0,4.2,128.0,4.8,'11111222,11111222,11111222' 
TCOON,ioos:station:TCOON:003:1,2017-05-01T10:18:00Z,26.8015,-97.4706,0.0,4.4,132.0,5.1,'11111222,11111222,11111222' 
TCOON,ioos:station:TCOON:003:1,2017-05-01T10:24:00Z,26.8015,-97.4706,0.0,4.4,132.0,5.1,'1111122,1111122,1111122' 
TCOON,ioos:station:TCOON:003:1,2017-05-01T10:30:00Z,26.8015,-97.4706,0.0,4.2,131.0,4.9,'11111222,11111222,11111222' 
TCOON,ioos:station:TCOON:003:1,2017-05-01T10:36:00Z,26.8015,-97.4706,0.0,4.4,134.0,4.9,'11111222,11111222,11111222' 
TCOON,ioos:station:TCOON:003:1,2017-05-01T10:42:00Z,26.8015,-97.4706,0.0,4.5,138.0,5.1,'11111222,11111222,11111222' 
TCOON,ioos:station:TCOON:003:1,2017-05-01T10:48:00Z,26.8015,-97.4706,0.0,4.4,139.0,5.3,'11111222,11111222,11111222' 
TCOON,ioos:station:TCOON:003:1,2017-05-01T10:54:00Z,26.8015,-97.4706,0.0,4.4,137.0,5.1,'11111222,11111222,11111222' 
TCOON,ioos:station:TCOON:003:1,2017-05-01T11:00:00Z,26.8015,-97.4706,0.0,4.0,132.0,4.9,'11111222,11111222,11111222' 
TCOON,ioos:station:TCOON:003:1,2017-05-01T11:06:00Z,26.8015,-97.4706,0.0,4.1,133.0,4.9,'11111222,11111222,11111222' 
TCOON,ioos:station:TCOON:003:1,2017-05-01T11:12:00Z,26.8015,-97.4706,0.0,4.1,132.0,4.8,'11111222,11111222,11111222' 
TCOON,ioos:station:TCOON:003:1,2017-05-01T11:18:00Z,26.8015,-97.4706,0.0,4.0,130.0,5.0,'11111222,11111222,11111222' 
TCOON,ioos:station:TCOON:003:1,2017-05-01T11:24:00Z,26.8015,-97.4706,0.0,4.0,130.0,5.0,'1111122,1111122,1111122' 
TCOON,ioos:station:TCOON:003:1,2017-05-01T11:30:00Z,26.8015,-97.4706,0.0,4.1,124.0,5.0,'11111222,11111222,11111222' 
TCOON,ioos:station:TCOON:003:1,2017-05-01T11:36:00Z,26.8015,-97.4706,0.0,4.0,121.0,5.1,'11111222,11111222,11111222' 
TCOON,ioos:station:TCOON:003:1,2017-05-01T11:42:00Z,26.8015,-97.4706,0.0,4.1,116.0,4.6,'11111222,11111222,11111222' 
TCOON,ioos:station:TCOON:003:1,2017-05-01T11:48:00Z,26.8015,-97.4706,0.0,3.5,111.0,4.1,'11111222,11111222,11111222' 
TCOON,ioos:station:TCOON:003:1,2017-05-01T11:54:00Z,26.8015,-97.4706,0.0,3.3,110.0,4.3,'11111222,11111222,11111222' 
TCOON,ioos:station:TCOON:003:1,2017-05-01T12:00:00Z,26.8015,-97.4706,0.0,3.0,120.0,3.6,'11111222,11111222,11111222' 
TCOON,ioos:station:TCOON:003:1,2017-05-01T12:06:00Z,26.8015,-97.4706,0.0,3.5,123.0,4.2,'11111222,11111222,11111222' 
TCOON,ioos:station:TCOON:003:1,2017-05-01T12:12:00Z,26.8015,-97.4706,0.0,4.1,127.0,4.8,'11111222,11111222,11111222' 
TCOON,ioos:station:TCOON:003:1,2017-05-01T12:18:00Z,26.8015,-97.4706,0.0,4.0,127.0,4.7,'11111222,11111222,11111222' 
TCOON,ioos:station:TCOON:003:1,2017-05-01T12:24:00Z,26.8015,-97.4706,0.0,4.0,127.0,4.7,'1111122,1111122,1111122' 
TCOON,ioos:station:TCOON:003:1,2017-05-01T12:30:00Z,26.8015,-97.4706,0.0,4.1,119.0,4.6,'11111222,11111222,11111222' 
TCOON,ioos:station:TCOON:003:1,2017-05-01T12:36:00Z,26.8015,-97.4706,0.0,4.0,115.0,4.7,'11111222,11111222,11111222' 
TCOON,ioos:station:TCOON:003:1,2017-05-01T12:42:00Z,26.8015,-97.4706,0.0,3.9,114.0,4.7,'11111222,11111222,11111222' 
TCOON,ioos:station:TCOON:003:1,2017-05-01T12:48:00Z,26.8015,-97.4706,0.0,3.9,116.0,5.0,'11111222,11111222,11111222' 
TCOON,ioos:station:TCOON:003:1,2017-05-01T12:54:00Z,26.8015,-97.4706,0.0,3.7,117.0,4.3,'11111222,11111222,11111222' 
TCOON,ioos:station:TCOON:003:1,2017-05-01T13:00:00Z,26.8015,-97.4706,0.0,3.0,166.0,3.7,'11111222,11111222,11111222' 
TCOON,ioos:station:TCOON:003:1,2017-05-01T13:06:00Z,26.8015,-97.4706,0.0,2.9,237.0,3.8,'11111222,11111222,11111222' 
TCOON,ioos:station:TCOON:003:1,2017-05-01T13:12:00Z,26.8015,-97.4706,0.0,4.0,246.0,4.5,'11111222,11111222,11111222' 
TCOON,ioos:station:TCOON:003:1,2017-05-01T13:18:00Z,26.8015,-97.4706,0.0,4.0,246.0,4.5,'1111122,1111122,1111122' 
TCOON,ioos:station:TCOON:003:1,2017-05-01T13:24:00Z,26.8015,-97.4706,0.0,3.1,233.0,4.1,'11111222,11111222,11111222' 
TCOON,ioos:station:TCOON:003:1,2017-05-01T13:30:00Z,26.8015,-97.4706,0.0,2.9,232.0,3.6,'11111222,11111222,11111222' 
TCOON,ioos:station:TCOON:003:1,2017-05-01T13:36:00Z,26.8015,-97.4706,0.0,3.1,241.0,3.5,'11111222,11111222,11111222' 
TCOON,ioos:station:TCOON:003:1,2017-05-01T13:42:00Z,26.8015,-97.4706,0.0,2.6,234.0,3.6,'11111222,11111222,11111222' 
TCOON,ioos:station:TCOON:003:1,2017-05-01T13:48:00Z,26.8015,-97.4706,0.0,2.3,241.0,2.7,'11111222,11111222,11111222' 
TCOON,ioos:station:TCOON:003:1,2017-05-01T13:54:00Z,26.8015,-97.4706,0.0,2.2,234.0,2.8,'11111222,11111222,11111222' 
TCOON,ioos:station:TCOON:003:1,2017-05-01T14:00:00Z,26.8015,-97.4706,0.0,2.2,231.0,2.5,'11111222,11111222,11111222' 
TCOON,ioos:station:TCOON:003:1,2017-05-01T14:06:00Z,26.8015,-97.4706,0.0,2.0,225.0,2.5,'11111222,11111222,11111222' 
TCOON,ioos:station:TCOON:003:1,2017-05-01T14:12:00Z,26.8015,-97.4706,0.0,1.8,212.0,2.3,'11111222,11111222,11111222' 
TCOON,ioos:station:TCOON:003:1,2017-05-01T14:18:00Z,26.8015,-97.4706,0.0,1.8,212.0,2.3,'1111122,1111122,1111122' 
TCOON,ioos:station:TCOON:003:1,2017-05-01T14:24:00Z,26.8015,-97.4706,0.0,1.8,185.0,2.5,'11111222,11111222,11111222' 
TCOON,ioos:station:TCOON:003:1,2017-05-01T14:30:00Z,26.8015,-97.4706,0.0,1.6,170.0,2.1,'11111222,11111222,11111222' 
TCOON,ioos:station:TCOON:003:1,2017-05-01T14:36:00Z,26.8015,-97.4706,0.0,2.4,167.0,2.7,'11111222,11111222,11111222' 
TCOON,ioos:station:TCOON:003:1,2017-05-01T14:42:00Z,26.8015,-97.4706,0.0,2.4,149.0,2.6,'11111222,11111222,11111222' 
TCOON,ioos:station:TCOON:003:1,2017-05-01T14:48:00Z,26.8015,-97.4706,0.0,2.3,160.0,2.8,'11111222,11111222,11111222' 
TCOON,ioos:station:TCOON:003:1,2017-05-01T14:54:00Z,26.8015,-97.4706,0.0,2.7,150.0,2.9,'11111222,11111222,11111222' 
TCOON,ioos:station:TCOON:003:1,2017-05-01T15:00:00Z,26.8015,-97.4706,0.0,2.4,150.0,3.0,'11111222,11111222,11111222' 
TCOON,ioos:station:TCOON:003:1,2017-05-01T15:06:00Z,26.8015,-97.4706,0.0,2.6,145.0,3.2,'11111222,11111222,11111222' 
TCOON,ioos:station:TCOON:003:1,2017-05-01T15:12:00Z,26.8015,-97.4706,0.0,2.7,142.0,3.3,'11111222,11111222,11111222' 
TCOON,ioos:station:TCOON:003:1,2017-05-01T15:18:00Z,26.8015,-97.4706,0.0,2.7,142.0,3.3,'1111122,1111122,1111122' 
TCOON,ioos:station:TCOON:003:1,2017-05-01T15:24:00Z,26.8015,-97.4706,0.0,2.9,124.0,3.3,'11111222,11111222,11111222' 
TCOON,ioos:station:TCOON:003:1,2017-05-01T15:30:00Z,26.8015,-97.4706,0.0,2.4,146.0,3.1,'11111222,11111222,11111222' 
TCOON,ioos:station:TCOON:003:1,2017-05-01T15:36:00Z,26.8015,-97.4706,0.0,2.6,142.0,3.2,'11111222,11111222,11111222' 
TCOON,ioos:station:TCOON:003:1,2017-05-01T15:42:00Z,26.8015,-97.4706,0.0,2.0,144.0,2.5,'11111222,11111222,11111222' 
TCOON,ioos:station:TCOON:003:1,2017-05-01T15:48:00Z,26.8015,-97.4706,0.0,2.3,146.0,2.8,'11111222,11111222,11111222' 
TCOON,ioos:station:TCOON:003:1,2017-05-01T15:54:00Z,26.8015,-97.4706,0.0,2.1,144.0,2.3,'11111222,11111222,11111222' 
TCOON,ioos:station:TCOON:003:1,2017-05-01T16:00:00Z,26.8015,-97.4706,0.0,2.2,148.0,2.6,'11111222,11111222,11111222' 
TCOON,ioos:station:TCOON:003:1,2017-05-01T16:06:00Z,26.8015,-97.4706,0.0,2.4,146.0,3.0,'11111222,11111222,11111222' 
TCOON,ioos:station:TCOON:003:1,2017-05-01T16:12:00Z,26.8015,-97.4706,0.0,2.5,149.0,2.8,'11111222,11111222,11111222' 
TCOON,ioos:station:TCOON:003:1,2017-05-01T16:18:00Z,26.8015,-97.4706,0.0,2.5,149.0,2.8,'1111122,1111122,1111122' 
TCOON,ioos:station:TCOON:003:1,2017-05-01T16:24:00Z,26.8015,-97.4706,0.0,2.8,160.0,3.3,'11111222,11111222,11111222' 
TCOON,ioos:station:TCOON:003:1,2017-05-01T16:30:00Z,26.8015,-97.4706,0.0,3.2,166.0,3.5,'11111222,11111222,11111222' 
TCOON,ioos:station:TCOON:003:1,2017-05-01T16:36:00Z,26.8015,-97.4706,0.0,3.5,170.0,4.0,'11111222,11111222,11111222' 
TCOON,ioos:station:TCOON:003:1,2017-05-01T16:42:00Z,26.8015,-97.4706,0.0,3.7,167.0,4.2,'11111222,11111222,11111222' 
TCOON,ioos:station:TCOON:003:1,2017-05-01T16:48:00Z,26.8015,-97.4706,0.0,4.2,170.0,4.8,'11111222,11111222,11111222' 
TCOON,ioos:station:TCOON:003:1,2017-05-01T16:54:00Z,26.8015,-97.4706,0.0,4.6,171.0,4.9,'11111222,11111222,11111222' 
TCOON,ioos:station:TCOON:003:1,2017-05-01T17:00:00Z,26.8015,-97.4706,0.0,4.6,173.0,5.2,'11111222,11111222,11111222' 
TCOON,ioos:station:TCOON:003:1,2017-05-01T17:06:00Z,26.8015,-97.4706,0.0,4.2,170.0,4.9,'11111222,11111222,11111222' 
TCOON,ioos:station:TCOON:003:1,2017-05-01T17:12:00Z,26.8015,-97.4706,0.0,4.1,165.0,4.7,'11111222,11111222,11111222' 
TCOON,ioos:station:TCOON:003:1,2017-05-01T17:18:00Z,26.8015,-97.4706,0.0,4.1,165.0,4.7,'1111122,1111122,1111122' 
TCOON,ioos:station:TCOON:003:1,2017-05-01T17:24:00Z,26.8015,-97.4706,0.0,4.3,164.0,4.7,'11111222,11111222,11111222' 
TCOON,ioos:station:TCOON:003:1,2017-05-01T17:30:00Z,26.8015,-97.4706,0.0,4.4,164.0,4.9,'11111222,11111222,11111222' 
TCOON,ioos:station:TCOON:003:1,2017-05-01T17:36:00Z,26.8015,-97.4706,0.0,4.3,164.0,5.1,'11111222,11111222,11111222' 
TCOON,ioos:station:TCOON:003:1,2017-05-01T17:42:00Z,26.8015,-97.4706,0.0,4.2,163.0,4.6,'11111222,11111222,11111222' 
TCOON,ioos:station:TCOON:003:1,2017-05-01T17:48:00Z,26.8015,-97.4706,0.0,4.2,167.0,4.9,'11111222,11111222,11111222' 
TCOON,ioos:station:TCOON:003:1,2017-05-01T17:54:00Z,26.8015,-97.4706,0.0,3.8,167.0,4.7,'11111222,11111222,11111222' 
TCOON,ioos:station:TCOON:003:1,2017-05-01T18:00:00Z,26.8015,-97.4706,0.0,4.4,165.0,4.6,'11111222,11111222,11111222' 
TCOON,ioos:station:TCOON:003:1,2017-05-01T18:06:00Z,26.8015,-97.4706,0.0,4.3,168.0,4.8,'11111222,11111222,11111222' 
TCOON,ioos:station:TCOON:003:1,2017-05-01T18:12:00Z,26.8015,-97.4706,0.0,3.8,164.0,4.6,'11111222,11111222,11111222' 
TCOON,ioos:station:TCOON:003:1,2017-05-01T18:18:00Z,26.8015,-97.4706,0.0,3.8,164.0,4.6,'1111122,1111122,1111122' 
TCOON,ioos:station:TCOON:003:1,2017-05-01T18:24:00Z,26.8015,-97.4706,0.0,4.0,172.0,4.8,'11111222,11111222,11111222' 
TCOON,ioos:station:TCOON:003:1,2017-05-01T18:30:00Z,26.8015,-97.4706,0.0,4.0,175.0,4.3,'11111222,11111222,11111222' 
TCOON,ioos:station:TCOON:003:1,2017-05-01T18:36:00Z,26.8015,-97.4706,0.0,3.9,174.0,4.3,'11111222,11111222,11111222' 
TCOON,ioos:station:TCOON:003:1,2017-05-01T18:42:00Z,26.8015,-97.4706,0.0,3.8,173.0,4.4,'11111222,11111222,11111222' 
TCOON,ioos:station:TCOON:003:1,2017-05-01T18:48:00Z,26.8015,-97.4706,0.0,3.9,175.0,4.5,'11111222,11111222,11111222' 
TCOON,ioos:station:TCOON:003:1,2017-05-01T18:54:00Z,26.8015,-97.4706,0.0,4.0,174.0,4.5,'11111222,11111222,11111222' 
TCOON,ioos:station:TCOON:003:1,2017-05-01T19:00:00Z,26.8015,-97.4706,0.0,4.4,169.0,4.8,'11111222,11111222,11111222' 
TCOON,ioos:station:TCOON:003:1,2017-05-01T19:06:00Z,26.8015,-97.4706,0.0,4.3,168.0,4.7,'11111222,11111222,11111222' 
TCOON,ioos:station:TCOON:003:1,2017-05-01T19:12:00Z,26.8015,-97.4706,0.0,5.1,167.0,5.6,'11111222,11111222,11111222' 
TCOON,ioos:station:TCOON:003:1,2017-05-01T19:18:00Z,26.8015,-97.4706,0.0,5.1,167.0,5.6,'1111122,1111122,1111122' 
TCOON,ioos:station:TCOON:003:1,2017-05-01T19:24:00Z,26.8015,-97.4706,0.0,5.2,162.0,5.6,'11111222,11111222,11111222' 
TCOON,ioos:station:TCOON:003:1,2017-05-01T19:30:00Z,26.8015,-97.4706,0.0,5.4,162.0,6.0,'11111222,11111222,11111222' 
TCOON,ioos:station:TCOON:003:1,2017-05-01T19:36:00Z,26.8015,-97.4706,0.0,5.1,161.0,6.1,'11111222,11111222,11111222' 
TCOON,ioos:station:TCOON:003:1,2017-05-01T19:42:00Z,26.8015,-97.4706,0.0,5.9,156.0,6.6,'11111222,11111222,11111222' 
TCOON,ioos:station:TCOON:003:1,2017-05-01T19:48:00Z,26.8015,-97.4706,0.0,6.0,154.0,6.7,'11111222,11111222,11111222' 
TCOON,ioos:station:TCOON:003:1,2017-05-01T20:00:00Z,26.8015,-97.4706,0.0,6.4,123.0,7.8,'11111222,11111222,11111222' 
TCOON,ioos:station:TCOON:003:1,2017-05-01T20:06:00Z,26.8015,-97.4706,0.0,7.3,122.0,8.2,'11111222,11111222,11111222' 
TCOON,ioos:station:TCOON:003:1,2017-05-01T20:18:00Z,26.8015,-97.4706,0.0,7.3,122.0,8.2,'1111122,1111122,1111122' 
TCOON,ioos:station:TCOON:003:1,2017-05-01T20:30:00Z,26.8015,-97.4706,0.0,7.4,120.0,9.2,'11111222,11111222,11111222' 
TCOON,ioos:station:TCOON:003:1,2017-05-01T20:36:00Z,26.8015,-97.4706,0.0,7.2,124.0,8.0,'11111222,11111222,11111222' 